This demonstration page uses our WeatherBlox Daily Observations layout. Learn more.

38.88101, -77.10428

Hourly Observations for August 26, 2017

Temp ( °F °C ) Dew Point ( °F °C ) Humidity (%) Winds ( mph kmh ) Pressure ( in mb ) Visibility ( mi km ) Precip ( " mm )
12:52 am 00:52 Mostly Clear 71 21.7 61 16.1 71 71 NE 6 9 30.22 1023 10 16.0934 0 0
1:52 am 01:52 Mostly Clear 69 20.6 62 16.7 78 78 N 3 6 30.22 1023 10 16.0934 0 0
2:52 am 02:52 Clear 67 19.4 62 16.7 84 84 NNW 6 9 30.22 1023 10 16.0934 0 0
3:52 am 03:52 Clear 67 19.4 62 16.7 84 84 N 5 7 30.21 1023 10 16.0934 0 0
4:52 am 04:52 Clear 67 19.4 61 16.1 81 81 NNE 5 7 30.22 1023 10 16.0934 0 0
5:52 am 05:52 Partly Cloudy 67 19.4 59 15 76 76 NNE 7 11 30.22 1023 10 16.0934 0 0
6:52 am 06:52 Mostly Cloudy 67 19.4 59 15 76 76 NNE 6 9 30.24 1024 10 16.0934 0 0
7:52 am 07:52 Mostly Cloudy 67 19.4 60 15.6 79 79 N 6 9 30.25 1024 10 16.0934 0 0
8:52 am 08:52 Mostly Sunny 71 21.7 60 15.6 68 68 NE 7 11 30.24 1024 10 16.0934 0 0
9:52 am 09:52 Mostly Sunny 73 22.8 62 16.7 69 69 NE 8 13 30.25 1024 10 16.0934 0 0
10:52 am 10:52 Partly Cloudy 76 24.4 58 14.4 54 54 NE 7 11 30.26 1025 10 16.0934 0 0
11:52 am 11:52 Mostly Cloudy 79 26.1 59 15 50 50 NNE 7 11 30.25 1024 10 16.0934 0 0
12:52 pm 12:52 Mostly Cloudy 78 25.6 59 15 52 52 SE 6 9 30.24 1024 10 16.0934 0 0
1:52 pm 13:52 Mostly Cloudy 80 26.7 57 13.9 45 45 E 6 9 30.23 1024 10 16.0934 0 0
2:52 pm 14:52 Mostly Cloudy 80 26.7 57 13.9 45 45 E 5 7 30.21 1023 10 16.0934 0 0
3:52 pm 15:52 Mostly Cloudy 79 26.1 57 13.9 47 47 ENE 7 11 30.21 1023 10 16.0934 0 0
4:52 pm 16:52 Partly Cloudy 79 26.1 56 13.3 45 45 E 8 13 30.2 1023 10 16.0934 0 0
5:52 pm 17:52 Partly Cloudy 78 25.6 55 12.8 45 45 E 9 15 30.2 1023 10 16.0934 0 0
6:52 pm 18:52 Mostly Sunny 77 25 58 14.4 52 52 E 8 13 30.19 1022 10 16.0934 0 0
7:52 pm 19:52 Partly Cloudy 75 23.9 57 13.9 54 54 E 7 11 30.2 1023 10 16.0934 0 0
8:52 pm 20:52 Partly Cloudy 74 23.3 59 15 60 60 ENE 8 13 30.21 1023 10 16.0934 0 0
9:52 pm 21:52 Partly Cloudy 73 22.8 59 15 62 62 NE 7 11 30.22 1024 10 16.0934 0 0
10:52 pm 22:52 Mostly Cloudy 72 22.2 59 15 64 64 NE 6 9 30.23 1024 10 16.0934 0 0
11:52 pm 23:52 Mostly Cloudy 71 21.7 60 15.6 68 68 ENE 3 6 30.24 1024 10 16.0934 0 0

Powered by AerisWeather